• In Belarus
  • List of Countries
  • For 7 days
  • Water Temperature
  • Weather Map
  • Weather Widgets
  • user-avatar
    Login

    Hourly Weather Almaty

    Today, 20 September, Friday

    Time Temperature Precipitation Wind Pressure Humidity
    00:00 +21°C° 0 mm 3 mps 691 mmHg 38%
    01:00 +21°C° 0 mm 3 mps 691 mmHg 38%
    02:00 +20°C° 0 mm 2 mps 691 mmHg 38%
    03:00 +20°C° 0 mm 2 mps 691 mmHg 37%
    04:00 +20°C° 0 mm 2 mps 691 mmHg 36%
    05:00 +20°C° 0 mm 2 mps 691 mmHg 36%
    06:00 +23°C° 0 mm 1 mps 692 mmHg 33%
    07:00 +25°C° 0 mm 1 mps 692 mmHg 31%
    08:00 +26°C° 0 mm 1 mps 692 mmHg 28%
    09:00 +27°C° 0 mm 1 mps 692 mmHg 27%
    10:00 +28°C° 0 mm 1 mps 692 mmHg 25%
    11:00 +30°C° 0 mm 1 mps 692 mmHg 23%
    12:00 +30°C° 0 mm 2 mps 692 mmHg 24%
    13:00 +30°C° 0 mm 2 mps 691 mmHg 24%
    14:00 +31°C° 0 mm 3 mps 691 mmHg 24%
    15:00 +30°C° 0 mm 2 mps 691 mmHg 28%
    16:00 +29°C° 0 mm 2 mps 691 mmHg 31%
    17:00 +28°C° 0 mm 2 mps 691 mmHg 35%
    18:00 +26°C° 0 mm 2 mps 691 mmHg 36%
    19:00 +25°C° 0 mm 2 mps 691 mmHg 38%
    20:00 +23°C° 0 mm 2 mps 691 mmHg 40%
    21:00 +23°C° 0 mm 2 mps 691 mmHg 40%
    22:00 +21°C° 0 mm 2 mps 691 mmHg 41%
    23:00 +21°C° 0 mm 2 mps 690 mmHg 41%

    Tomorrow, 21 September, Saturday

    Time Temperature Precipitation Wind Pressure Humidity
    00:00 +21°C° 0 mm 2 mps 690 mmHg 40%
    01:00 +21°C° 0 mm 2 mps 690 mmHg 40%
    02:00 +20°C° 0 mm 2 mps 690 mmHg 39%
    03:00 +20°C° 0 mm 2 mps 690 mmHg 38%
    04:00 +20°C° 0 mm 2 mps 690 mmHg 36%
    05:00 +19°C° 0 mm 2 mps 690 mmHg 35%
    06:00 +22°C° 0 mm 1 mps 690 mmHg 33%
    07:00 +23°C° 0 mm 1 mps 690 mmHg 32%
    08:00 +25°C° 0 mm 1 mps 690 mmHg 30%
    09:00 +26°C° 0 mm 1 mps 690 mmHg 29%
    10:00 +27°C° 0 mm 1 mps 690 mmHg 28%
    11:00 +28°C° 0 mm 1 mps 690 mmHg 26%
    12:00 +29°C° 0 mm 1 mps 689 mmHg 26%
    13:00 +29°C° 0 mm 2 mps 689 mmHg 26%
    14:00 +30°C° 0 mm 2 mps 689 mmHg 26%
    15:00 +29°C° 0 mm 1 mps 688 mmHg 29%
    16:00 +28°C° 0 mm 1 mps 688 mmHg 33%
    17:00 +28°C° 0 mm 1 mps 688 mmHg 36%
    18:00 +26°C° 0 mm 1 mps 688 mmHg 36%
    19:00 +25°C° 0 mm 1 mps 688 mmHg 36%
    20:00 +23°C° 0 mm 2 mps 688 mmHg 36%
    21:00 +23°C° 0 mm 2 mps 688 mmHg 35%
    22:00 +23°C° 0 mm 2 mps 688 mmHg 34%
    23:00 +23°C° 0 mm 2 mps 687 mmHg 32%

    Day after tomorrow, 22 September, Sunday

    Time Temperature Precipitation Wind Pressure Humidity
    00:00 +23°C° 0 mm 2 mps 687 mmHg 33%
    01:00 +21°C° 0 mm 2 mps 687 mmHg 33%
    02:00 +21°C° 0 mm 2 mps 687 mmHg 34%
    03:00 +21°C° 0 mm 3 mps 687 mmHg 33%
    04:00 +21°C° 0 mm 3 mps 687 mmHg 33%
    05:00 +21°C° 0 mm 3 mps 687 mmHg 33%
    06:00 +23°C° 0 mm 2 mps 687 mmHg 31%
    07:00 +25°C° 0 mm 2 mps 687 mmHg 29%
    08:00 +27°C° 0 mm 1 mps 688 mmHg 27%
    09:00 +28°C° 0 mm 1 mps 688 mmHg 24%
    10:00 +30°C° 0 mm 2 mps 688 mmHg 21%
    11:00 +31°C° 0 mm 2 mps 688 mmHg 18%
    12:00 +32°C° 0 mm 2 mps 688 mmHg 18%
    13:00 +34°C° 0 mm 2 mps 688 mmHg 17%
    14:00 +35°C° 0 mm 3 mps 687 mmHg 17%
    15:00 +34°C° 0 mm 2 mps 687 mmHg 20%
    16:00 +31°C° 0 mm 2 mps 687 mmHg 23%
    17:00 +30°C° 0 mm 2 mps 687 mmHg 27%
    18:00 +29°C° 0 mm 2 mps 687 mmHg 26%
    19:00 +27°C° 0 mm 2 mps 687 mmHg 26%
    20:00 +25°C° 0 mm 2 mps 687 mmHg 25%
    21:00 +25°C° 0 mm 3 mps 687 mmHg 25%
    22:00 +25°C° 0 mm 3 mps 688 mmHg 25%
    23:00 +25°C° 0 mm 3 mps 688 mmHg 25%

    23 September, Monday

    Time Temperature Precipitation Wind Pressure Humidity
    00:00 +25°C° 0 mm 3 mps 688 mmHg 25%
    01:00 +25°C° 0 mm 3 mps 688 mmHg 25%
    02:00 +25°C° 0 mm 3 mps 688 mmHg 25%
    03:00 +25°C° 0 mm 3 mps 689 mmHg 26%
    04:00 +24°C° 0 mm 3 mps 690 mmHg 27%
    05:00 +24°C° 0 mm 3 mps 690 mmHg 27%
    06:00 +24°C° 0 mm 2 mps 691 mmHg 34%
    07:00 +23°C° 0 mm 2 mps 692 mmHg 41%
    08:00 +23°C° 0 mm 1 mps 693 mmHg 47%
    09:00 +23°C° 0 mm 2 mps 693 mmHg 46%
    10:00 +24°C° 0 mm 2 mps 693 mmHg 45%
    11:00 +25°C° 0 mm 3 mps 693 mmHg 44%
    12:00 +25°C° 0 mm 3 mps 693 mmHg 42%
    13:00 +26°C° 0 mm 3 mps 693 mmHg 41%
    14:00 +26°C° 0 mm 3 mps 692 mmHg 40%
    15:00 +25°C° 0 mm 3 mps 692 mmHg 41%
    16:00 +25°C° 0 mm 2 mps 692 mmHg 41%
    17:00 +24°C° 0 mm 2 mps 692 mmHg 42%
    18:00 +23°C° 0 mm 2 mps 691 mmHg 42%
    19:00 +21°C° 0 mm 2 mps 691 mmHg 43%
    20:00 +20°C° 0 mm 2 mps 691 mmHg 43%
    21:00 +19°C° 0 mm 2 mps 691 mmHg 43%
    22:00 +19°C° 0 mm 2 mps 690 mmHg 42%
    23:00 +18°C° 0 mm 2 mps 690 mmHg 42%

    24 September, Tuesday

    Time Temperature Precipitation Wind Pressure Humidity
    00:00 +19°C° 0 mm 1 mps 690 mmHg 41%
    01:00 +19°C° 0 mm 1 mps 690 mmHg 41%
    02:00 +19°C° 0 mm 1 mps 690 mmHg 40%
    03:00 +19°C° 0 mm 1 mps 690 mmHg 41%
    04:00 +18°C° 0 mm 1 mps 690 mmHg 41%
    05:00 +18°C° 0 mm 1 mps 690 mmHg 41%
    06:00 +19°C° 0 mm 1 mps 690 mmHg 39%
    07:00 +21°C° 0 mm 1 mps 690 mmHg 37%
    08:00 +23°C° 0 mm 1 mps 690 mmHg 35%
    09:00 +23°C° 0 mm 2 mps 691 mmHg 34%
    10:00 +24°C° 0 mm 2 mps 691 mmHg 34%
    11:00 +25°C° 0 mm 3 mps 691 mmHg 34%
    12:00 +25°C° 0 mm 3 mps 691 mmHg 34%
    13:00 +26°C° 0 mm 3 mps 691 mmHg 34%
    14:00 +26°C° 0 mm 3 mps 691 mmHg 34%
    15:00 +25°C° 0 mm 3 mps 691 mmHg 38%
    16:00 +24°C° 0 mm 3 mps 691 mmHg 42%
    17:00 +22°C° 0 mm 3 mps 691 mmHg 45%
    18:00 +21°C° 0 mm 2 mps 691 mmHg 50%
    19:00 +20°C° 0 mm 1 mps 691 mmHg 55%
    20:00 +19°C° 0 mm 1 mps 692 mmHg 60%
    21:00 +19°C° 0 mm 1 mps 692 mmHg 59%
    22:00 +19°C° 0 mm 1 mps 691 mmHg 59%
    23:00 +19°C° 0 mm 1 mps 691 mmHg 58%

    25 September, Wednesday

    Time Temperature Precipitation Wind Pressure Humidity
    00:00 +18°C° 0 mm 1 mps 691 mmHg 59%
    01:00 +18°C° 0 mm 1 mps 691 mmHg 60%
    02:00 +18°C° 0 mm 1 mps 691 mmHg 61%
    03:00 +16°C° 0 mm 1 mps 691 mmHg 62%
    04:00 +16°C° 0 mm 1 mps 691 mmHg 62%
    05:00 +16°C° 0 mm 1 mps 692 mmHg 62%
    06:00 +18°C° 0 mm 1 mps 692 mmHg 57%
    07:00 +19°C° 0 mm 1 mps 693 mmHg 53%
    08:00 +21°C° 0 mm 1 mps 693 mmHg 48%
    09:00 +22°C° 0 mm 1 mps 693 mmHg 45%
    10:00 +23°C° 0 mm 2 mps 693 mmHg 43%
    11:00 +24°C° 0 mm 2 mps 693 mmHg 40%
    12:00 +24°C° 0 mm 2 mps 693 mmHg 40%
    13:00 +25°C° 0 mm 2 mps 692 mmHg 39%
    14:00 +26°C° 0 mm 2 mps 692 mmHg 38%
    15:00 +25°C° 0 mm 2 mps 692 mmHg 40%
    16:00 +25°C° 0 mm 2 mps 692 mmHg 42%
    17:00 +24°C° 0 mm 1 mps 692 mmHg 43%
    18:00 +23°C° 0 mm 1 mps 692 mmHg 43%
    19:00 +22°C° 0 mm 1 mps 692 mmHg 42%
    20:00 +20°C° 0 mm 1 mps 692 mmHg 41%
    21:00 +20°C° 0 mm 1 mps 691 mmHg 40%
    22:00 +19°C° 0 mm 2 mps 691 mmHg 39%
    23:00 +19°C° 0 mm 2 mps 691 mmHg 38%
    Show more